Temperature
11 11 11 10 10 9 8 8 7 6 6 5 5 4 3 3 2 2 1 1 1 1 1 0 -1 -2 -4 -5 -6 -7 -7 -7 -8 -8 -7 -7 -7 -7 -7 -7 -8 -8 -8
11 10 10 10 9 8 8 7 6 6 5 5 4 3 2 2 1 1 1 1 1 0 -0 -1 -2 -4 -5 -6 -7 -7 -8 -8 -8 -8 -8 -8 -8 -7 -7 -8 -8 -8 -8
10 10 9 9 8 8 7 6 6 5 5 4 3 2 2 1 1 1 1 0 -0 -1 -2 -3 -4 -5 -6 -7 -7 -8 -8 -8 -8 -8 -8 -8 -8 -8 -8 -8 -8 -9 -9
9 9 9 8 7 7 6 5 5 4 4 3 2 1 1 1 1 0 -0 -1 -1 -2 -4 -5 -5 -6 -7 -8 -8 -8 -8 -8 -8 -8 -8 -8 -8 -8 -9 -9 -9 -9 -10
9 8 8 7 6 6 5 4 4 3 2 2 1 1 0 0 -0 -1 -2 -3 -3 -4 -5 -6 -7 -7 -8 -8 -8 -8 -8 -8 -8 -8 -8 -9 -9 -9 -9 -10 -10 -10 -10
8 7 7 6 5 5 4 3 3 2 1 1 0 0 -0 -0 -1 -1 -3 -5 -5 -6 -7 -7 -8 -8 -8 -8 -8 -8 -8 -8 -8 -9 -9 -9 -10 -10 -10 -10 -10 -10 -10
7 6 6 5 4 3 3 2 2 1 0 -0 -0 -0 -1 -1 -2 -2 -4 -6 -6 -7 -7 -8 -8 -8 -8 -8 -8 -8 -8 -9 -9 -10 -10 -10 -10 -10 -10 -10 -10 -11 -11
6 5 4 3 3 2 2 1 0 0 -0 -1 -1 -1 -1 -2 -2 -3 -4 -6 -7 -8 -8 -8 -8 -9 -9 -9 -8 -8 -9 -9 -10 -10 -10 -10 -10 -10 -11 -11 -11 -11 -11
4 4 3 2 2 1 1 0 -0 -1 -1 -1 -1 -2 -2 -3 -3 -4 -6 -7 -8 -8 -8 -8 -9 -9 -9 -9 -9 -9 -10 -10 -10 -10 -10 -10 -10 -10 -10 -11 -11 -11 -11
3 3 2 1 1 0 -0 -0 -1 -1 -1 -2 -2 -3 -3 -4 -4 -6 -7 -8 -8 -8 -9 -9 -9 -9 -9 -9 -9 -10 -10 -10 -10 -10 -10 -9 -9 -9 -9 -10 -11 -12 -12
2 2 1 0 0 -0 -1 -1 -1 -2 -2 -3 -3 -3 -4 -4 -5 -6 -8 -9 -9 -9 -9 -9 -9 -10 -9 -10 -10 -11 -11 -10 -10 -10 -9 -9 -9 -9 -9 -9 -10 -11 -11
1 1 0 -0 -1 -1 -1 -2 -2 -2 -3 -3 -3 -4 -4 -5 -7 -8 -9 -9 -9 -9 -9 -10 -10 -10 -10 -11 -11 -11 -11 -11 -10 -10 -11 -10 -9 -9 -9 -9 -9 -9 -10
0 -0 -1 -1 -1 -2 -2 -2 -3 -3 -4 -4 -5 -5 -6 -7 -8 -8 -9 -10 -9 -9 -10 -10 -10 -11 -11 -10 -10 -10 -10 -10 -11 -12 -11 -10 -9 -9 -9 -9 -9 -9 -8
-0 -1 -1 -2 -2 -2 -3 -3 -3 -4 -4 -5 -6 -7 -8 -8 -9 -9 -10 -10 -10 -10 -10 -10 -11 -10 -10 -10 -10 -10 -10 -11 -12 -12 -11 -9 -9 -8 -8 -9 -9 -9 -9
-1 -1 -2 -2 -2 -3 -3 -4 -4 -5 -6 -7 -8 -9 -9 -9 -10 -10 -10 -10 -10 -11 -11 -11 -10 -10 -10 -10 -10 -10 -10 -10 -10 -10 -10 -9 -9 -9 -9 -9 -9 -9 -10
-1 -2 -2 -3 -3 -3 -4 -4 -5 -6 -6 -7 -8 -9 -9 -10 -10 -10 -11 -11 -11 -11 -11 -11 -11 -11 -11 -11 -11 -11 -10 -10 -10 -9 -9 -9 -9 -9 -9 -9 -9 -9 -10
-2 -2 -3 -3 -4 -4 -5 -5 -5 -5 -6 -7 -8 -8 -9 -9 -9 -11 -11 -11 -10 -10 -11 -11 -11 -11 -11 -11 -11 -11 -10 -9 -9 -9 -9 -8 -9 -9 -9 -9 -9 -9 -9
-2 -3 -3 -4 -5 -5 -5 -6 -7 -7 -7 -7 -8 -9 -9 -9 -10 -11 -11 -10 -10 -10 -11 -12 -12 -11 -11 -11 -11 -10 -10 -9 -9 -8 -8 -8 -8 -9 -8 -8 -9 -9 -9
-3 -4 -4 -5 -5 -6 -6 -7 -7 -8 -9 -9 -9 -9 -9 -9 -10 -10 -10 -11 -11 -11 -12 -12 -11 -11 -11 -11 -10 -10 -9 -9 -8 -8 -8 -8 -8 -8 -8 -8 -8 -8 -9
-4 -5 -5 -6 -6 -6 -7 -7 -8 -9 -9 -10 -10 -10 -10 -11 -10 -10 -10 -11 -11 -12 -12 -11 -11 -11 -10 -10 -10 -9 -9 -8 -8 -8 -8 -8 -8 -8 -8 -8 -8 -8 -8
-5 -6 -6 -6 -6 -7 -7 -8 -9 -10 -10 -10 -10 -10 -11 -12 -11 -11 -11 -11 -12 -12 -12 -11 -11 -10 -10 -10 -9 -9 -8 -8 -8 -8 -8 -8 -7 -7 -7 -7 -7 -8 -8
-6 -6 -6 -6 -7 -7 -8 -9 -10 -10 -10 -10 -10 -10 -11 -11 -11 -11 -11 -11 -11 -11 -11 -11 -10 -10 -10 -9 -9 -8 -8 -7 -8 -8 -7 -7 -7 -7 -7 -7 -7 -7 -8
-6 -6 -6 -7 -8 -8 -9 -10 -10 -10 -11 -11 -11 -11 -11 -11 -11 -11 -11 -11 -11 -11 -11 -11 -10 -10 -9 -8 -8 -8 -8 -7 -7 -7 -7 -7 -7 -7 -7 -7 -7 -7 -8
-6 -7 -7 -8 -8 -9 -10 -10 -10 -11 -11 -11 -11 -11 -11 -11 -11 -11 -11 -11 -11 -10 -10 -10 -10 -9 -9 -8 -8 -7 -7 -7 -7 -7 -7 -7 -7 -7 -7 -7 -7 -7 -8
-7 -7 -8 -9 -9 -10 -10 -11 -11 -11 -11 -11 -11 -11 -11 -11 -11 -11 -10 -10 -10 -10 -10 -10 -9 -9 -8 -8 -7 -7 -7 -7 -7 -7 -7 -7 -7 -7 -7 -7 -7 -7 -7
-7 -8 -9 -10 -10 -11 -11 -11 -11 -11 -11 -11 -11 -11 -11 -11 -11 -11 -10 -10 -10 -10 -9 -9 -9 -8 -8 -7 -7 -7 -7 -7 -7 -7 -6 -6 -6 -6 -6 -6 -6 -7 -7
Wind_Speed
11 12 13 12 11 11 9 8 8 7 7 6 5 4 3 3 3 3 4 5 5 6 6 7 8 8 6 6 6 7 8 9 15 17 12 10 10 11 13 14 18 16 18
12 13 13 12 11 10 9 8 8 7 6 6 5 4 4 4 4 4 5 6 7 8 8 8 9 8 8 7 7 8 9 9 12 19 16 13 13 13 12 11 14 13 11
13 14 13 11 11 10 9 8 7 7 6 6 5 4 4 4 5 5 5 6 7 7 8 8 9 9 9 8 9 10 10 11 10 14 17 16 14 12 12 13 12 11 16
13 13 12 10 9 9 8 8 7 7 6 5 4 4 4 5 5 6 6 6 5 6 7 8 8 9 10 10 10 9 9 10 11 13 15 14 13 11 9 13 15 10 12
13 12 10 9 9 8 8 7 7 7 6 4 4 4 4 5 5 7 5 4 4 6 7 8 9 13 15 13 13 11 11 12 13 14 14 14 13 13 14 13 18 17 13
13 11 9 9 8 8 8 7 7 6 5 4 4 5 6 5 11 14 11 4 4 6 8 8 9 11 15 21 25 24 22 16 13 11 13 17 17 15 14 16 17 19 19
12 10 9 9 8 8 7 7 6 5 4 4 4 5 6 8 13 15 16 8 5 7 9 9 10 12 17 13 19 23 16 22 24 18 17 17 18 17 17 19 18 19 20
11 10 8 9 8 7 7 7 5 3 3 3 4 5 6 8 14 16 18 8 6 8 10 10 11 12 14 18 15 12 10 12 18 14 12 15 15 13 15 18 19 19 18
10 9 8 8 8 7 7 5 3 3 3 3 4 6 7 9 15 18 18 6 7 9 10 11 12 11 21 26 16 12 12 13 19 22 24 24 28 27 22 15 14 15 18
9 9 8 8 8 7 6 3 2 2 3 5 6 6 7 8 14 18 18 6 7 8 8 8 14 18 24 26 15 11 14 16 16 15 17 20 17 19 23 14 13 15 16
10 10 9 8 8 6 5 3 2 3 5 5 6 7 7 9 14 18 19 9 8 8 8 7 8 22 25 26 21 11 17 20 14 14 14 14 13 12 12 12 12 13 15
11 10 9 7 6 5 5 4 4 4 5 6 6 7 6 8 12 16 19 19 18 10 9 7 11 24 25 24 18 20 24 20 11 12 13 13 12 13 13 14 15 15 15
11 9 7 7 6 5 4 4 3 3 4 5 6 7 7 7 9 18 19 22 22 13 10 19 22 23 21 15 19 23 18 11 12 12 13 13 11 12 13 13 14 14 15
10 8 6 6 5 5 4 3 3 4 5 6 6 7 7 7 7 8 8 10 15 12 10 13 19 20 17 17 16 13 10 11 13 12 13 14 13 11 12 12 14 14 14
8 7 5 5 4 3 3 3 4 4 5 7 5 5 8 7 11 19 15 10 10 11 13 6 7 10 9 10 11 11 11 11 12 12 13 14 14 14 14 12 12 13 13
7 5 4 3 3 3 3 4 7 7 11 13 13 12 10 14 19 20 20 21 21 21 14 9 9 10 10 12 13 13 13 12 12 12 12 12 13 14 14 13 12 12 13
7 5 3 3 3 3 3 4 6 7 10 12 14 16 16 18 19 19 20 21 18 17 9 8 9 10 11 12 12 12 13 13 12 12 12 12 13 13 13 13 13 12 12
6 5 4 3 2 2 3 4 4 6 8 7 11 16 18 19 19 19 20 16 11 10 9 9 10 11 11 12 12 12 13 13 12 12 12 12 12 12 12 12 12 13 13
5 3 2 1 2 3 4 4 4 5 6 7 7 9 15 17 17 17 16 9 10 10 10 10 10 11 12 12 12 12 13 13 13 13 13 13 12 12 12 12 12 16 14
4 4 2 1 3 3 4 4 4 5 6 7 7 8 10 11 9 11 10 9 9 10 11 11 12 12 12 12 12 12 13 13 13 12 12 12 12 11 12 13 12 11 10
2 3 5 3 3 4 4 4 5 5 6 6 7 11 16 10 9 10 9 10 10 11 11 12 12 12 12 11 12 13 14 14 13 13 12 12 12 12 11 11 12 10 8
2 2 3 3 3 4 4 4 5 6 7 8 8 10 16 9 8 9 10 10 11 11 11 12 12 12 12 12 13 13 14 14 14 13 13 13 12 12 12 11 10 8 7
2 2 3 3 4 7 7 5 5 6 7 7 8 9 10 9 9 10 10 11 11 12 11 11 12 13 12 12 12 12 13 14 14 15 15 15 13 11 10 9 9 8 5
2 3 3 4 4 5 5 6 6 7 8 8 9 9 10 10 10 11 10 10 11 11 11 12 13 16 20 16 12 13 13 14 15 15 16 11 9 8 8 7 7 6 5
3 3 3 4 5 6 6 7 7 7 9 9 10 10 10 11 11 10 9 10 12 12 14 15 12 13 18 22 20 17 22 28 24 12 8 8 8 8 8 7 5 4 4
3 3 4 4 5 5 6 7 7 8 9 9 9 9 10 10 10 10 10 11 11 13 14 14 14 18 21 19 21 25 29 27 19 16 9 6 7 7 7 5 5 4 4
Wind_Direction
120 118 118 115 113 110 110 112 110 103 100 95 88 71 41 18 360 350 324 312 315 306 298 288 279 269 257 252 254 261 264 269 285 296 296 294 285 281 288 282 280 279 280
119 116 115 114 112 109 109 110 110 106 98 92 81 61 29 6 350 337 319 320 312 304 301 300 292 290 270 266 267 265 267 268 280 295 301 302 295 291 289 283 292 288 276
118 116 115 113 111 111 113 113 109 103 91 78 68 46 16 349 329 316 311 308 304 302 303 301 296 294 289 281 274 275 275 283 282 291 297 298 297 296 296 295 288 280 283
118 118 116 115 116 118 117 111 104 98 87 71 54 33 1 330 316 309 304 298 306 313 307 300 298 295 286 282 285 280 288 292 290 291 292 296 300 300 300 302 302 289 288
120 118 117 117 117 115 110 105 97 88 81 66 44 16 354 331 311 303 290 287 304 308 301 296 297 304 309 309 311 309 306 302 302 303 307 312 308 308 307 306 304 303 293
120 119 121 119 115 111 108 103 92 78 65 48 25 0 344 328 316 319 321 294 284 297 297 293 294 299 307 317 315 312 310 313 317 309 306 305 306 306 306 304 305 304 302
117 119 121 118 112 109 105 93 81 70 51 29 3 339 317 311 323 324 321 322 289 291 292 295 306 311 315 301 302 308 312 312 312 309 305 305 305 306 304 304 302 299 298
118 118 118 113 107 101 93 86 77 59 35 3 327 322 321 323 331 326 322 325 293 285 289 291 294 296 298 305 310 314 301 302 306 306 297 298 303 302 300 302 301 299 295
118 117 113 111 108 101 93 84 66 45 10 328 324 332 327 319 327 325 324 302 290 289 291 294 300 296 306 316 321 312 309 312 315 311 311 310 309 309 309 308 307 306 304
115 108 104 105 107 105 99 83 56 28 345 339 332 323 315 309 321 326 325 299 296 295 291 288 309 317 317 323 322 317 318 314 314 318 316 311 306 304 309 308 305 303 303
108 102 98 101 105 106 98 81 44 16 359 345 323 316 312 314 323 326 324 322 309 307 311 308 304 319 323 325 326 321 312 318 324 319 312 308 307 307 307 303 298 297 299
104 101 99 98 98 96 84 56 32 14 351 334 322 316 307 307 321 324 327 327 324 319 319 313 312 323 327 328 327 319 322 328 322 313 311 311 311 309 307 305 300 295 289
104 104 106 97 80 73 64 38 14 358 341 324 316 315 316 312 315 325 326 326 326 326 317 320 324 328 331 329 321 323 328 322 314 313 312 309 304 298 303 307 306 303 297
110 109 103 91 72 48 33 18 356 338 325 318 317 318 316 315 310 308 308 316 322 321 313 319 327 329 329 325 323 322 317 313 315 313 310 308 307 307 311 314 315 317 314
108 104 97 87 76 43 10 344 330 300 296 317 312 308 319 318 321 329 330 326 329 322 329 327 326 326 326 323 321 320 318 318 316 313 311 311 312 314 314 317 314 314 314
111 103 96 87 58 32 358 334 328 324 327 331 333 332 325 325 328 331 332 335 334 334 336 328 323 321 320 321 320 319 317 316 315 313 310 309 311 312 314 315 314 314 316
112 109 90 67 37 3 340 325 320 325 329 335 339 338 334 333 332 333 337 337 336 339 334 321 318 319 317 315 314 313 313 312 311 309 307 308 309 310 311 313 316 317 317
94 84 76 50 6 323 304 300 301 313 323 323 330 334 335 334 333 337 340 340 334 335 326 321 318 316 313 312 311 312 311 312 311 310 309 308 308 308 309 311 313 315 317
83 69 71 18 322 302 299 301 303 306 309 312 315 324 332 330 332 335 341 335 325 324 323 320 316 312 310 310 310 310 308 308 307 308 307 306 307 307 307 308 310 313 318
66 40 45 341 311 305 305 307 310 309 309 313 318 322 321 324 331 331 331 324 321 319 319 317 313 309 309 309 309 308 308 308 308 306 305 304 304 304 304 306 309 311 313
65 5 349 339 316 312 309 309 309 308 308 310 311 316 326 333 326 319 320 320 319 318 317 314 310 308 307 306 306 306 305 305 304 303 302 302 303 304 304 303 305 308 314
47 339 324 321 324 320 314 312 310 310 310 308 308 313 324 326 315 315 317 316 316 315 311 308 305 302 303 304 305 306 304 303 302 302 301 301 300 299 299 301 307 319 326
23 345 340 340 331 327 329 315 310 310 307 304 309 316 318 316 316 314 313 315 315 311 309 306 303 302 303 304 302 299 297 296 296 295 295 294 294 293 296 305 316 328 331
27 3 349 338 325 317 314 314 312 312 311 311 314 314 314 315 314 312 311 311 311 308 306 306 302 301 303 308 308 304 297 294 293 290 289 297 307 309 311 318 326 337 336
33 5 344 328 317 316 314 309 306 307 313 315 314 313 314 313 311 309 310 310 309 308 307 308 304 305 308 310 309 305 305 309 313 317 320 321 312 311 316 324 334 343 346
17 354 333 320 309 306 307 305 308 313 313 311 309 309 310 309 308 309 310 309 310 310 309 308 306 308 310 311 307 309 314 319 329 339 339 318 313 316 327 332 346 357 351
Height
1451 1456 1462 1466 1471 1475 1477 1479 1480 1481 1481 1480 1479 1478 1477 1474 1472 1469 1468 1465 1463 1460 1456 1452 1447 1443 1439 1435 1431 1427 1423 1417 1405 1394 1391 1387 1384 1380 1376 1372 1368 1363 1359
1451 1456 1461 1465 1469 1472 1475 1476 1477 1478 1477 1477 1476 1475 1473 1470 1468 1466 1463 1461 1458 1454 1450 1445 1440 1436 1431 1428 1424 1419 1415 1410 1403 1391 1384 1380 1376 1371 1366 1362 1358 1354 1349
1450 1455 1459 1463 1467 1471 1473 1474 1474 1474 1474 1473 1472 1471 1469 1467 1465 1462 1459 1456 1452 1448 1443 1438 1433 1429 1424 1420 1416 1412 1407 1403 1398 1390 1380 1374 1367 1363 1358 1352 1348 1343 1337
1449 1454 1459 1463 1466 1468 1470 1471 1471 1471 1470 1469 1468 1467 1465 1463 1461 1458 1454 1450 1446 1442 1437 1432 1427 1422 1417 1413 1409 1405 1401 1396 1390 1383 1374 1367 1362 1356 1351 1344 1335 1330 1325
1449 1454 1458 1461 1464 1466 1467 1468 1468 1467 1466 1466 1465 1464 1462 1460 1457 1453 1449 1444 1440 1435 1431 1426 1421 1417 1413 1409 1406 1400 1395 1389 1382 1376 1368 1361 1356 1350 1344 1336 1328 1319 1313
1448 1453 1457 1460 1462 1463 1465 1465 1465 1464 1464 1463 1462 1460 1458 1455 1452 1448 1444 1438 1434 1429 1424 1420 1416 1412 1407 1404 1399 1394 1390 1384 1377 1370 1362 1356 1348 1343 1336 1330 1322 1313 1301
1448 1452 1456 1458 1460 1461 1462 1462 1462 1462 1462 1460 1459 1456 1454 1450 1446 1442 1438 1433 1428 1424 1419 1415 1410 1407 1402 1396 1390 1386 1382 1378 1374 1367 1357 1349 1342 1337 1330 1322 1315 1308 1299
1447 1451 1454 1456 1458 1459 1460 1460 1460 1460 1458 1457 1455 1452 1449 1445 1441 1436 1432 1427 1423 1419 1415 1411 1406 1400 1395 1390 1385 1379 1373 1368 1363 1357 1351 1344 1338 1331 1325 1318 1309 1300 1291
1447 1450 1453 1455 1456 1457 1458 1458 1458 1457 1455 1453 1451 1447 1443 1439 1435 1431 1426 1421 1418 1414 1410 1406 1401 1396 1390 1386 1379 1372 1364 1358 1353 1349 1344 1338 1331 1324 1318 1311 1303 1294 1283
1446 1449 1451 1454 1455 1456 1456 1456 1454 1453 1451 1449 1446 1443 1438 1434 1430 1425 1421 1417 1412 1408 1404 1400 1396 1391 1386 1380 1374 1366 1357 1351 1345 1339 1334 1329 1323 1317 1312 1306 1298 1290 1279
1445 1448 1451 1453 1454 1454 1454 1452 1451 1450 1448 1445 1442 1439 1435 1430 1425 1421 1417 1413 1408 1404 1399 1394 1389 1385 1380 1374 1368 1361 1354 1348 1341 1334 1327 1321 1315 1310 1305 1299 1293 1286 1276
1445 1448 1450 1452 1452 1452 1451 1450 1448 1446 1443 1440 1437 1434 1430 1426 1421 1416 1413 1409 1405 1400 1394 1389 1384 1379 1373 1367 1360 1355 1350 1343 1336 1329 1322 1316 1310 1304 1298 1292 1285 1279 1272
1445 1447 1449 1450 1450 1449 1448 1447 1445 1442 1439 1436 1432 1428 1424 1421 1417 1412 1408 1404 1400 1396 1390 1384 1379 1372 1366 1360 1355 1350 1344 1338 1331 1325 1319 1312 1306 1300 1292 1285 1278 1271 1264
1445 1446 1447 1447 1447 1447 1445 1444 1442 1439 1436 1432 1428 1424 1420 1416 1412 1407 1403 1399 1395 1390 1384 1378 1373 1367 1361 1356 1350 1345 1339 1334 1329 1323 1315 1309 1302 1295 1288 1281 1273 1265 1256
1444 1445 1445 1445 1445 1444 1443 1442 1439 1436 1433 1429 1425 1421 1416 1411 1409 1406 1401 1396 1391 1385 1379 1372 1367 1361 1356 1350 1346 1341 1335 1330 1324 1319 1312 1305 1299 1291 1284 1278 1271 1263 1255
1442 1443 1444 1444 1443 1442 1441 1440 1437 1434 1431 1427 1423 1419 1414 1410 1405 1401 1397 1392 1386 1380 1375 1369 1363 1358 1353 1347 1342 1336 1331 1326 1321 1315 1309 1303 1296 1288 1281 1275 1269 1262 1254
1441 1442 1442 1442 1441 1440 1438 1435 1433 1431 1428 1424 1420 1415 1411 1406 1401 1397 1392 1386 1381 1376 1371 1365 1360 1355 1351 1345 1340 1333 1327 1322 1317 1311 1306 1300 1293 1286 1279 1272 1266 1260 1253
1441 1441 1441 1441 1439 1437 1435 1432 1429 1425 1422 1419 1416 1412 1407 1402 1398 1393 1388 1382 1377 1372 1367 1362 1358 1353 1348 1343 1337 1331 1325 1319 1314 1308 1303 1297 1290 1284 1277 1271 1265 1259 1253
1441 1441 1440 1439 1437 1435 1432 1430 1427 1423 1419 1414 1410 1407 1403 1398 1394 1390 1384 1379 1373 1368 1364 1359 1355 1351 1346 1340 1334 1328 1322 1316 1311 1306 1300 1294 1287 1281 1275 1270 1264 1259 1254
1440 1439 1438 1436 1434 1432 1430 1427 1423 1419 1415 1411 1407 1402 1397 1393 1389 1385 1380 1375 1370 1366 1361 1357 1352 1348 1343 1337 1331 1325 1319 1314 1308 1302 1297 1291 1285 1280 1274 1269 1263 1258 1253
1439 1438 1436 1434 1432 1429 1427 1423 1419 1416 1412 1408 1404 1400 1396 1391 1386 1381 1376 1372 1367 1363 1358 1354 1349 1345 1340 1334 1327 1322 1316 1311 1306 1299 1294 1288 1283 1278 1273 1268 1263 1258 1254
1437 1436 1434 1432 1429 1426 1423 1420 1416 1412 1409 1404 1400 1396 1392 1388 1383 1378 1373 1369 1365 1360 1356 1351 1347 1342 1337 1331 1325 1319 1314 1308 1303 1297 1291 1286 1281 1277 1272 1267 1263 1258 1254
1435 1434 1432 1429 1426 1423 1420 1416 1413 1409 1405 1401 1396 1392 1387 1383 1379 1374 1370 1365 1361 1357 1353 1349 1344 1339 1334 1328 1323 1318 1312 1306 1300 1295 1289 1284 1280 1275 1271 1267 1263 1258 1254
1433 1431 1428 1425 1422 1419 1416 1412 1409 1405 1401 1396 1392 1388 1383 1379 1375 1371 1366 1362 1358 1354 1351 1347 1342 1336 1331 1326 1322 1317 1311 1305 1299 1293 1290 1285 1280 1276 1271 1267 1263 1259 1255
1430 1428 1425 1422 1419 1415 1412 1408 1405 1401 1396 1392 1388 1384 1379 1375 1371 1367 1363 1359 1355 1352 1348 1344 1339 1334 1329 1324 1320 1315 1309 1303 1299 1295 1290 1285 1280 1276 1272 1268 1264 1261 1257
1427 1424 1421 1418 1415 1412 1408 1404 1400 1396 1392 1388 1384 1380 1375 1371 1367 1364 1360 1356 1353 1349 1346 1342 1337 1332 1328 1323 1318 1313 1308 1302 1298 1294 1289 1285 1281 1277 1273 1269 1266 1263 1260